Back to catalog

STARLINK-34008

AliveCommunicationsVLEO
NORAD 64037·PAYLOAD·🇺🇸 United States

Launched May 16, 2025 from Vandenberg Space Force Base

Loading…

Next Passes (next 24 hours)

TLE

FreshSource: CelesTrak SupGP

Epoch: Sep 15, 2026, 03:05 UTC

1 64037C 25102R   26258.12895833  .00091690  00000+0  31928-2 0  2589
2 64037  70.0009 355.2686 0003134 266.3573 208.8808 15.29500303    19

Track STARLINK-34008 in real time with AllMySat

Download on the App Store